Regional Weather Roundup
Issued by NWS New Orleans/Baton Rouge, LA

Home | Current Version | Previous Version | Graphics & Text | Print | Product List | Glossary On
Versions: 1 2 3 4 5 6 7 8 9 10 11 12 13 14 15 16 17 18 19 20 21 22 23 24 25 26 27 28 29 30 31 32 33 34 35 36 37 38 39 40 41 42 43 44 45 46 47 48 49 50
890
ASUS44 KLIX 281705
RWRLIX
NEW ORLEANS REGIONAL WEATHER ROUNDUP
NATIONAL WEATHER SERVICE NEW ORLEANS LA
1100 AM CST FRI NOV 28 2014

NOTE: "FAIR" INDICATES FEW OR NO CLOUDS BELOW 12,000 FEET WITH NO
      SIGNIFICANT WEATHER AND/OR OBSTRUCTIONS TO VISIBILITY.
      SKY/WX - SKY CONDITION AND SIGNIFICANT WEATHER.
      TMP - AIR TEMPERATURE.     DP    - DEWPOINT TEMPERATURE.
      RH  - RELATIVE HUMIDITY.   PRES  - PRESSURE.
      HI  - HEAT INDEX.          WCI   - WIND CHILL INDEX.

*  THESE STATIONS ARE NOT NWS OR FAA STATIONS AND ARE NOT UNDER
   NWS QUALITY CONTROL.

LAZ038-040-048-061>063-065>067-069-281800-
SOUTHEAST LOUISIANA

CITY           SKY/WX    TMP DP  RH WIND       PRES   REMARKS
N.O. AUDUBON   NOT AVBL
N.O. INTL ARPT SUNNY     55  36  48 SE6       30.41F
N.O. LAKEFRONT SUNNY     54  39  57 E13       30.42F
N.O. DOWNTOWN*   N/A     54  37  54 NE3       30.42F
SLIDELL        SUNNY     54  30  40 VRB3      30.42F
BATON ROUGE    SUNNY     54  31  41 VRB6      30.41F
BOOTHVILLE     SUNNY     57  46  66 NE10      30.42F
BELLE CHASSE   MOSUNNY   57  37  47 E9        30.41F
BOGALUSA*        N/A     53  30  40 SE3       30.43F
NEW ROADS*       N/A     53  33  47 E5        30.41F
GONZALES*        N/A     56  35  46 NE5       30.40F
HAMMOND*       SUNNY     54  27  35 S5        30.43F
HOUMA*         SUNNY     55  43  62 E8        30.41F
PORT FOURCHON* SUNNY     57  46  67 E13       30.43F

$$

MSZ070-080>082-281800-
SOUTHERN MISSISSIPPI

CITY           SKY/WX    TMP DP  RH WIND       PRES   REMARKS
MCCOMB         SUNNY     50  27  40 SE7       30.41F
GULFPORT       SUNNY     50  29  44 E5        30.42F
BILOXI         SUNNY     51  30  43 E6        30.42F
PASCAGOULA     SUNNY     53  29  39 VRB3      30.42F
STENNIS ARPT*  SUNNY     52  27  37 SE6       30.43F

$$

COASTAL OBSERVATIONS
LAKE AND NEARSHORE STATIONS

STATION/POSITION TIME  TEMP    WIND        PRES    WAVE
                       AIR SEA DIR/SP/G            HT/PER
                 (UTC) (F)     (DEG/KT/KT) (MB)    (FT/S)
PASCAGOULA       1700   52      70/  5/  9 1029.6
WAVELAND YACHT   1700   48     130/  7/  9 1029.4
GRAND ISLE       1700   55 59   70/  9/ 14 1029.9
SOUTHWEST PASS   1700   64                 1029.4
NEW CANAL        1700   52 53   80/  6/ 11 1030.3
SHELL BEACH      1700   51 50   70/ 11/ 13 1029.9

OFFSHORE STATIONS

STATION/POSITION TIME  TEMP    WIND        PRES    WAVE
                       AIR SEA DIR/SP/G            HT/PER
                 (UTC) (F)     (DEG/KT/KT) (MB)    (FT/S)
64 S DAUPHIN ISL 1605   56 71   70/ 12/ 16 1030.1    3/ 6

$$




USA.gov is the U.S. government's official web portal to all federal, state and local government web resources and services.